Voltar ao catálogo

ELECTRON KICK STAGE R/B

AtivoSSO
NORAD 63359·ROCKET BODY·🇺🇸 United States

Lançado Mar 26, 2025 de Rocket Lab Launch Complex 1

Loading…

Próximas Passagens (próximas 24 horas)

TLE

AtualizadoSource: Space-Track

Época: Sep 14, 2026, 10:27 UTC

1 63359U 25061J   26257.43556190  .00013050  00000-0  34482-3 0  9998
2 63359  97.5602 245.5075 0033059 197.7842 162.2249 15.38001236 81984

Acompanhe ELECTRON KICK STAGE R/B em tempo real com AllMySat

Download on the App Store